• In Italy
  • List of Countries
  • For 7 days
  • Water Temperature
  • Satellite Maps
  • Weather Map
  • Weather Widgets
  • user-avatar
    Login

    Hourly Weather Dhaka

    Today, 13 December, Wednesday

    Time Temperature Precipitation Wind Pressure Humidity
    00:00 +22°C° 0 mm 0 mps 759 mmHg 74%
    01:00 +24°C° 0 mm 1 mps 759 mmHg 74%
    02:00 +24°C° 0 mm 1 mps 759 mmHg 75%
    03:00 +24°C° 0 mm 1 mps 759 mmHg 75%
    04:00 +23°C° 0 mm 1 mps 759 mmHg 76%
    05:00 +23°C° 0 mm 1 mps 759 mmHg 77%
    06:00 +23°C° 0 mm 1 mps 759 mmHg 77%
    07:00 +24°C° 0 mm 1 mps 760 mmHg 73%
    08:00 +25°C° 0 mm 1 mps 760 mmHg 68%
    09:00 +26°C° 0 mm 1 mps 761 mmHg 63%
    10:00 +28°C° 0 mm 1 mps 760 mmHg 58%
    11:00 +29°C° 0 mm 1 mps 760 mmHg 52%
    12:00 +30°C° 0 mm 1 mps 759 mmHg 47%
    13:00 +30°C° 0 mm 1 mps 759 mmHg 44%
    14:00 +31°C° 0 mm 1 mps 758 mmHg 42%
    15:00 +31°C° 0 mm 2 mps 758 mmHg 40%
    16:00 +30°C° 0 mm 1 mps 758 mmHg 43%
    17:00 +28°C° 0 mm 1 mps 758 mmHg 46%
    18:00 +27°C° 0 mm 1 mps 758 mmHg 49%
    19:00 +27°C° 0 mm 1 mps 758 mmHg 50%
    20:00 +24°C° 0 mm 0 mps 759 mmHg 52%
    21:00 +24°C° 0 mm 0 mps 759 mmHg 53%
    22:00 +23°C° 0 mm 0 mps 759 mmHg 54%
    23:00 +25°C° 0 mm 1 mps 759 mmHg 55%

    Tomorrow, 14 December, Thursday

    Time Temperature Precipitation Wind Pressure Humidity
    00:00 +24°C° 0 mm 1 mps 759 mmHg 57%
    01:00 +24°C° 0 mm 1 mps 759 mmHg 58%
    02:00 +23°C° 0 mm 1 mps 759 mmHg 59%
    03:00 +23°C° 0 mm 1 mps 759 mmHg 61%
    04:00 +23°C° 0 mm 1 mps 759 mmHg 62%
    05:00 +22°C° 0 mm 1 mps 759 mmHg 64%
    06:00 +22°C° 0 mm 1 mps 759 mmHg 66%
    07:00 +23°C° 0 mm 1 mps 760 mmHg 62%
    08:00 +24°C° 0 mm 1 mps 761 mmHg 59%
    09:00 +26°C° 0 mm 1 mps 761 mmHg 55%
    10:00 +27°C° 0 mm 2 mps 761 mmHg 49%
    11:00 +29°C° 0 mm 2 mps 761 mmHg 43%
    12:00 +30°C° 0 mm 3 mps 760 mmHg 37%
    13:00 +30°C° 0 mm 3 mps 760 mmHg 36%
    14:00 +30°C° 0 mm 4 mps 759 mmHg 35%
    15:00 +32°C° 0 mm 4 mps 758 mmHg 34%
    16:00 +29°C° 0 mm 3 mps 758 mmHg 37%
    17:00 +28°C° 0 mm 2 mps 758 mmHg 40%
    18:00 +26°C° 0 mm 2 mps 758 mmHg 44%
    19:00 +25°C° 0 mm 1 mps 759 mmHg 45%
    20:00 +25°C° 0 mm 1 mps 759 mmHg 46%
    21:00 +24°C° 0 mm 1 mps 760 mmHg 47%
    22:00 +24°C° 0 mm 1 mps 760 mmHg 48%
    23:00 +23°C° 0 mm 1 mps 760 mmHg 50%

    Day after tomorrow, 15 December, Friday

    Time Temperature Precipitation Wind Pressure Humidity
    00:00 +23°C° 0 mm 1 mps 760 mmHg 51%
    01:00 +22°C° 0 mm 1 mps 759 mmHg 52%
    02:00 +22°C° 0 mm 1 mps 759 mmHg 53%
    03:00 +22°C° 0 mm 1 mps 759 mmHg 53%
    04:00 +21°C° 0 mm 1 mps 759 mmHg 55%
    05:00 +21°C° 0 mm 1 mps 759 mmHg 57%
    06:00 +20°C° 0 mm 1 mps 759 mmHg 59%
    07:00 +22°C° 0 mm 1 mps 760 mmHg 56%
    08:00 +23°C° 0 mm 1 mps 761 mmHg 53%
    09:00 +24°C° 0 mm 2 mps 762 mmHg 50%
    10:00 +26°C° 0 mm 2 mps 761 mmHg 45%
    11:00 +27°C° 0 mm 2 mps 761 mmHg 40%
    12:00 +28°C° 0 mm 2 mps 760 mmHg 35%
    13:00 +29°C° 0 mm 2 mps 760 mmHg 34%
    14:00 +29°C° 0 mm 3 mps 759 mmHg 32%
    15:00 +30°C° 0 mm 3 mps 758 mmHg 31%
    16:00 +28°C° 0 mm 2 mps 759 mmHg 34%
    17:00 +26°C° 0 mm 2 mps 759 mmHg 38%
    18:00 +25°C° 0 mm 2 mps 759 mmHg 42%
    19:00 +24°C° 0 mm 1 mps 760 mmHg 43%
    20:00 +23°C° 0 mm 1 mps 760 mmHg 45%
    21:00 +23°C° 0 mm 1 mps 761 mmHg 47%
    22:00 +22°C° 0 mm 1 mps 761 mmHg 48%
    23:00 +22°C° 0 mm 1 mps 761 mmHg 49%

    16 December, Saturday

    Time Temperature Precipitation Wind Pressure Humidity
    00:00 +21°C° 0 mm 1 mps 761 mmHg 50%
    01:00 +20°C° 0 mm 2 mps 761 mmHg 51%
    02:00 +19°C° 0 mm 2 mps 760 mmHg 52%
    03:00 +19°C° 0 mm 2 mps 760 mmHg 54%
    04:00 +18°C° 0 mm 2 mps 760 mmHg 56%
    05:00 +18°C° 0 mm 2 mps 760 mmHg 58%
    06:00 +18°C° 0 mm 2 mps 761 mmHg 60%
    07:00 +19°C° 0 mm 2 mps 761 mmHg 57%
    08:00 +20°C° 0 mm 2 mps 762 mmHg 55%
    09:00 +23°C° 0 mm 2 mps 763 mmHg 53%
    10:00 +24°C° 0 mm 2 mps 762 mmHg 49%
    11:00 +26°C° 0 mm 2 mps 762 mmHg 44%
    12:00 +27°C° 0 mm 2 mps 761 mmHg 40%
    13:00 +28°C° 0 mm 2 mps 761 mmHg 38%
    14:00 +28°C° 0 mm 2 mps 760 mmHg 37%
    15:00 +29°C° 0 mm 2 mps 759 mmHg 35%
    16:00 +27°C° 0 mm 2 mps 760 mmHg 39%
    17:00 +26°C° 0 mm 2 mps 760 mmHg 43%
    18:00 +24°C° 0 mm 2 mps 760 mmHg 47%
    19:00 +23°C° 0 mm 2 mps 761 mmHg 49%
    20:00 +23°C° 0 mm 1 mps 761 mmHg 51%
    21:00 +22°C° 0 mm 1 mps 762 mmHg 53%
    22:00 +22°C° 0 mm 1 mps 762 mmHg 55%
    23:00 +22°C° 0 mm 1 mps 762 mmHg 56%

    17 December, Sunday

    Time Temperature Precipitation Wind Pressure Humidity
    00:00 +21°C° 0 mm 1 mps 762 mmHg 58%
    01:00 +21°C° 0 mm 1 mps 761 mmHg 60%
    02:00 +20°C° 0 mm 1 mps 761 mmHg 62%
    03:00 +20°C° 0 mm 1 mps 761 mmHg 63%
    04:00 +20°C° 0 mm 1 mps 761 mmHg 65%
    05:00 +19°C° 0 mm 1 mps 761 mmHg 67%
    06:00 +19°C° 0 mm 1 mps 761 mmHg 68%
    07:00 +20°C° 0 mm 1 mps 762 mmHg 64%
    08:00 +22°C° 0 mm 1 mps 763 mmHg 60%
    09:00 +23°C° 0 mm 1 mps 763 mmHg 55%
    10:00 +24°C° 0 mm 1 mps 763 mmHg 51%
    11:00 +26°C° 0 mm 1 mps 763 mmHg 46%
    12:00 +27°C° 0 mm 1 mps 762 mmHg 41%
    13:00 +28°C° 0 mm 1 mps 761 mmHg 39%
    14:00 +28°C° 0 mm 1 mps 761 mmHg 37%
    15:00 +28°C° 0 mm 1 mps 760 mmHg 35%
    16:00 +27°C° 0 mm 1 mps 760 mmHg 39%
    17:00 +26°C° 0 mm 1 mps 760 mmHg 43%
    18:00 +24°C° 0 mm 1 mps 760 mmHg 46%
    19:00 +24°C° 0 mm 1 mps 761 mmHg 48%
    20:00 +23°C° 0 mm 1 mps 761 mmHg 50%
    21:00 +23°C° 0 mm 1 mps 762 mmHg 52%
    22:00 +22°C° 0 mm 1 mps 762 mmHg 54%
    23:00 +22°C° 0 mm 1 mps 761 mmHg 55%

    18 December, Monday

    Time Temperature Precipitation Wind Pressure Humidity
    00:00 +21°C° 0 mm 1 mps 761 mmHg 57%
    01:00 +21°C° 0 mm 1 mps 761 mmHg 58%
    02:00 +21°C° 0 mm 1 mps 761 mmHg 60%
    03:00 +20°C° 0 mm 1 mps 761 mmHg 62%
    04:00 +20°C° 0 mm 1 mps 761 mmHg 64%
    05:00 +19°C° 0 mm 1 mps 761 mmHg 65%
    06:00 +19°C° 0 mm 1 mps 761 mmHg 67%
    07:00 +20°C° 0 mm 1 mps 762 mmHg 63%
    08:00 +22°C° 0 mm 1 mps 762 mmHg 60%
    09:00 +23°C° 0 mm 1 mps 763 mmHg 56%
    10:00 +24°C° 0 mm 1 mps 763 mmHg 51%
    11:00 +26°C° 0 mm 1 mps 762 mmHg 46%
    12:00 +27°C° 0 mm 1 mps 762 mmHg 41%
    13:00 +27°C° 0 mm 1 mps 761 mmHg 39%
    14:00 +28°C° 0 mm 2 mps 760 mmHg 37%
    15:00 +28°C° 0 mm 2 mps 760 mmHg 35%
    16:00 +27°C° 0 mm 2 mps 760 mmHg 39%
    17:00 +25°C° 0 mm 1 mps 760 mmHg 42%
    18:00 +24°C° 0 mm 1 mps 760 mmHg 46%
    19:00 +24°C° 0 mm 1 mps 761 mmHg 47%
    20:00 +23°C° 0 mm 1 mps 761 mmHg 49%
    21:00 +21°C° 0 mm 2 mps 761 mmHg 51%
    22:00 +22°C° 0 mm 1 mps 761 mmHg 52%
    23:00 +21°C° 0 mm 1 mps 761 mmHg 54%
    Show more